Regional Weather Roundup
Issued by NWS Bismarck, ND

Home | Current Version | Previous Version | Text Only | Print | Product List | Glossary On
Versions: 1 2 3 4 5 6 7 8 9 10 11 12 13 14 15 16 17 18 19 20 21 22 23 24 25 26 27 28 29 30 31 32 33 34 35 36 37 38 39 40 41 42 43 44 45 46 47 48 49 50
000
ASUS43 KBIS 020459
RWRBIS

NWR BROADCAST TEXT
NATIONAL WEATHER SERVICE BISMARCK ND
1200 AM CDT THU OCT 02 2014

NOTE: "FAIR" INDICATES FEW OR NO CLOUDS BELOW 12,000 FEET WITH NO
SIGNIFICANT WEATHER AND/OR OBSTRUCTIONS TO VISIBILITY.


CITY           SKY/WX    TMP DP  RH WIND       PRES   REMARKS
WILLISTON      PTCLDY    45  41  86 SW7       29.85S
MINOT          PTCLDY    51  45  79 SW12      29.80S
MINOT AFB      NOT AVBL
BISMARCK       MOCLDY    51  46  83 W7        29.87R
DICKINSON      NOT AVBL
GARRISON         N/A     46  44  93 W7        29.84S
HETTINGER ARPT MOCLDY    42  39  89 NW5       29.93S
JAMESTOWN      NOT AVBL
CARRINGTON     MOCLDY    46  46 100 W8        29.83R
CROSBY         FAIR      45  45 100 SW8       29.82F
HARVEY         FAIR      46  46 100 SW8       29.82R
HAZEN          FAIR      46  45  93 SW7       29.87R
LINTON         CLOUDY    50  50 100 W6        29.87R
MANDAN         FAIR      48  46  93 W8        29.87S
OAKES            N/A     50  50 100 W8        29.84S
RUGBY          FAIR      46  46 100 W9        29.78F
WATFORD CITY   FAIR      43  41  93 SW9       29.85S
$$

CITY           SKY/WX    TMP DP  RH WIND       PRES   REMARKS
GRAND FORKS    CLOUDY    58  50  75 W8        29.75R
GRAND FORKS AF NOT AVBL
DEVILS LAKE    PTCLDY    50  43  76 W8        29.77S
FARGO          CLOUDY    59  50  72 W8        29.78S
CAVALIER       FAIR      54  48  82 W9        29.73S
GRAFTON        CLOUDY    57  50  77 W10       29.74S
GWINNER          N/A     54  52  94 W8        29.84R
LANGDON        CLOUDY    50  46  87 W9        29.76R
ROLLA          FAIR      45  45 100 SW8       29.77S
$$

CITY           SKY/WX    TMP DP  RH WIND       PRES   REMARKS
ABERDEEN       PTCLDY    51  47  86 W7        29.86R
MOBRIDGE       MOCLDY    51  47  86 NW7       29.87S
BUFFALO          N/A     41  37  86 W8        29.89S
RAPID CITY     CLOUDY    44  41  89 NW5       29.97F
GLASGOW        CLOUDY    44  38  79 SE7       29.84F
SIDNEY         PTCLDY    45  39  81 CALM      29.89F
WOLF POINT     CLEAR     39  35  86 CALM      29.87S
GLENDIVE       CLEAR     43  37  81 NW7       29.92S
MILES CITY     MOCLDY    45  32  60 S5        29.94S
BAKER          CLEAR     40  36  86 CALM      29.94S
$$

CITY           SKY/WX    TMP DP  RH WIND       PRES   REMARKS
BILLINGS       CLEAR     48  35  60 SW12      29.96S
GREAT FALLS    CLEAR     43  30  60 SW10      29.94R
$$




USA.gov is the U.S. government's official web portal to all federal, state and local government web resources and services.